Location: Arbon
(43.0005°N, 0.7472°E)
Time: 09:59:49
(UTC+00:00)

Vanguard 2 Rocket - Pass Details

Date: 05 December 2020
Orbit: 554 x 3325 km, 32.9° (Epoch: 21 January)

Event Time Altitude Azimuth Distance (km) Brightness Sun altitude
Rises 04:39:53 0° 216° (SW) 5,948 10.8 -27.2°
Reaches altitude 10° 04:43:46 10° 208° (SSW) 5,271 10.6 -26.5°
Maximum altitude 04:58:42 39° 147° (SSE) 4,169 10.5 -23.8°
Drops below altitude 10° 05:16:15 10° 88° (E) 6,189 12.2 -20.7°
Sets 05:21:15 0° 82° (E) 7,046 12.7 -19.8°
